Location: *
(53.9002°N, 27.5624°E)
Time: 22:22:08
(UTC+00:00)

H-2A R/B - Pass Details

Date: 12 November 2019
Orbit: 733 x 838 km, 98.3° (Epoch: 11 December)

Event Time Altitude Azimuth Distance (km) Brightness Sun altitude
Exits shadow 19:02:21 20° 312° (NW) 1,830 4.4 -41.1°
Drops below altitude 10° 19:04:23 10° 328° (NNW) 2,435 5.1 -41.4°
Sets 19:07:01 0° 339° (NNW) 3,358 5.9 -41.7°
